BKB1 CYKA-K88M

Flight info

Callsign BKB1
Flight time N/A
Altitude 25000
Route KEBRA1 KEBRA DCT ROBTI DCT ANTAK
Aircraft PC12/L-SDFGRWY/S

Departure

Time 2026-04-26 14:56
Airport Kamloops John Moose Fulton Field Regional Airport (CYKA)

Arrival

Time N/A
Airport K88M
Time Latitude Longitude Altitude Speed Heading
2026-04-26 14:45 50.70538 -120.43855 1131 ft 0 kts 240°
2026-04-26 14:51 50.70533 -120.43866 1134 ft 5 kts 244°
2026-04-26 14:51 50.70535 -120.43956 1131 ft 12 kts 238°
2026-04-26 14:52 50.70456 -120.44032 1131 ft 14 kts 210°
2026-04-26 14:52 50.70403 -120.44158 1132 ft 14 kts 240°
2026-04-26 14:52 50.70359 -120.44299 1131 ft 14 kts 272°
2026-04-26 14:52 50.70420 -120.44411 1133 ft 14 kts 293°
2026-04-26 14:53 50.70438 -120.44557 1131 ft 14 kts 284°
2026-04-26 14:53 50.70461 -120.44704 1132 ft 14 kts 282°
2026-04-26 14:53 50.70483 -120.44856 1131 ft 15 kts 284°
2026-04-26 14:53 50.70507 -120.45017 1131 ft 15 kts 283°
2026-04-26 14:54 50.70516 -120.45172 1131 ft 14 kts 248°
2026-04-26 14:54 50.70467 -120.45304 1134 ft 14 kts 238°
2026-04-26 14:54 50.70404 -120.45401 1133 ft 13 kts 164°
2026-04-26 14:54 50.70369 -120.45287 1132 ft 10 kts 104°
2026-04-26 14:55 50.70364 -120.45255 1134 ft 11 kts 103°
2026-04-26 14:55 50.70308 -120.44869 1133 ft 63 kts 103°
2026-04-26 14:55 50.70168 -120.43991 1132 ft 99 kts 103°
2026-04-26 14:55 50.69990 -120.42839 1282 ft 115 kts 105°
2026-04-26 14:56 50.69787 -120.41566 1601 ft 124 kts 103°
2026-04-26 14:56 50.69589 -120.40195 1935 ft 133 kts 103°
2026-04-26 14:56 50.69364 -120.38664 2230 ft 149 kts 104°
2026-04-26 14:56 50.69137 -120.37132 2959 ft 139 kts 103°
2026-04-26 14:57 50.68922 -120.35675 3703 ft 135 kts 101°
2026-04-26 14:57 50.68709 -120.34241 4245 ft 134 kts 103°
2026-04-26 14:57 50.68497 -120.32809 4946 ft 135 kts 99°
2026-04-26 14:57 50.68283 -120.31379 5560 ft 136 kts 99°
2026-04-26 14:58 50.68064 -120.29935 6188 ft 134 kts 101°
2026-04-26 14:58 50.67846 -120.28507 6801 ft 134 kts 100°
2026-04-26 14:58 50.67630 -120.27077 7395 ft 134 kts 100°
2026-04-26 14:58 50.67413 -120.25638 8005 ft 135 kts 100°
2026-04-26 14:59 50.67194 -120.24185 8614 ft 136 kts 100°
2026-04-26 14:59 50.66974 -120.22723 9230 ft 138 kts 100°
2026-04-26 14:59 50.66750 -120.21245 9848 ft 139 kts 100°
2026-04-26 14:59 50.66601 -120.20259 10220 ft 140 kts 99°
2026-04-26 15:00 50.66297 -120.18247 10958 ft 142 kts 98°
2026-04-26 15:00 50.66066 -120.16718 11508 ft 144 kts 98°
2026-04-26 15:00 50.65833 -120.15178 12074 ft 145 kts 97°
2026-04-26 15:00 50.65599 -120.13624 12649 ft 147 kts 96°
2026-04-26 15:01 50.65362 -120.12053 13218 ft 150 kts 95°
2026-04-26 15:01 50.65109 -120.10359 13585 ft 167 kts 96°
2026-04-26 15:01 50.64824 -120.08493 13935 ft 182 kts 97°
2026-04-26 15:01 50.64510 -120.06482 14272 ft 195 kts 97°
2026-04-26 15:02 50.64175 -120.04353 14597 ft 205 kts 97°
2026-04-26 15:02 50.63828 -120.02138 14915 ft 211 kts 97°
2026-04-26 15:02 50.63477 -119.99885 15237 ft 216 kts 97°
2026-04-26 15:02 50.63117 -119.97571 15583 ft 219 kts 97°
2026-04-26 15:03 50.62753 -119.95223 15915 ft 221 kts 97°
2026-04-26 15:03 50.62386 -119.92860 16257 ft 223 kts 96°
2026-04-26 15:03 50.62010 -119.90488 16597 ft 224 kts 97°
2026-04-26 15:03 50.61566 -119.88134 16943 ft 225 kts 99°
2026-04-26 15:04 50.61087 -119.85788 17296 ft 225 kts 100°
2026-04-26 15:04 50.60605 -119.83438 17653 ft 225 kts 99°
2026-04-26 15:04 50.60129 -119.81089 17991 ft 227 kts 99°
2026-04-26 15:04 50.59648 -119.78701 18269 ft 230 kts 99°
2026-04-26 15:05 50.59164 -119.76289 18503 ft 232 kts 99°
2026-04-26 15:05 50.59000 -119.75472 18587 ft 233 kts 100°
2026-04-26 15:05 50.58185 -119.71422 18980 ft 234 kts 100°
2026-04-26 15:05 50.57692 -119.68978 19222 ft 234 kts 100°
2026-04-26 15:06 50.57199 -119.66526 19477 ft 235 kts 99°
2026-04-26 15:06 50.56707 -119.64072 19726 ft 236 kts 99°
2026-04-26 15:06 50.56220 -119.61647 19992 ft 236 kts 100°
2026-04-26 15:06 50.55726 -119.59190 20248 ft 236 kts 100°
2026-04-26 15:07 50.54733 -119.54278 20752 ft 235 kts 99°
2026-04-26 15:07 50.54238 -119.51832 21015 ft 234 kts 99°
2026-04-26 15:07 50.53746 -119.49426 21276 ft 228 kts 99°
2026-04-26 15:08 50.53265 -119.47078 21534 ft 224 kts 99°
2026-04-26 15:08 50.52792 -119.44767 21806 ft 220 kts 99°
2026-04-26 15:08 50.52329 -119.42496 22070 ft 217 kts 99°
2026-04-26 15:08 50.51874 -119.40258 22342 ft 214 kts 99°
2026-04-26 15:09 50.51424 -119.38042 22626 ft 212 kts 98°
2026-04-26 15:09 50.50977 -119.35842 22901 ft 211 kts 98°
2026-04-26 15:09 50.50532 -119.33658 23180 ft 209 kts 98°
2026-04-26 15:09 50.50091 -119.31493 23450 ft 207 kts 98°
2026-04-26 15:10 50.49653 -119.29356 23702 ft 205 kts 98°
2026-04-26 15:10 50.49365 -119.27949 23855 ft 204 kts 98°
2026-04-26 15:10 50.48786 -119.25118 24170 ft 203 kts 98°
2026-04-26 15:10 50.48355 -119.23010 24413 ft 203 kts 98°
2026-04-26 15:11 50.47923 -119.20903 24662 ft 202 kts 98°
2026-04-26 15:11 50.47491 -119.18802 24855 ft 205 kts 98°
2026-04-26 15:11 50.47048 -119.16617 24888 ft 215 kts 99°
2026-04-26 15:11 50.46582 -119.14330 24902 ft 224 kts 99°
2026-04-26 15:12 50.46096 -119.11967 24911 ft 231 kts 99°
2026-04-26 15:12 50.45591 -119.09531 24916 ft 238 kts 100°
2026-04-26 15:12 50.45071 -119.07037 24925 ft 243 kts 100°
2026-04-26 15:12 50.44538 -119.04491 24921 ft 247 kts 100°
2026-04-26 15:13 50.43998 -119.01919 24921 ft 250 kts 101°
2026-04-26 15:13 50.43452 -118.99313 24920 ft 253 kts 101°
2026-04-26 15:13 50.42908 -118.96720 24917 ft 254 kts 101°
2026-04-26 15:13 50.42346 -118.94041 24926 ft 256 kts 101°
2026-04-26 15:14 50.41797 -118.91427 24923 ft 256 kts 101°
2026-04-26 15:14 50.41239 -118.88768 24919 ft 257 kts 101°
2026-04-26 15:14 50.40679 -118.86103 24919 ft 258 kts 101°
2026-04-26 15:14 50.40118 -118.83428 24920 ft 259 kts 101°
2026-04-26 15:15 50.39554 -118.80742 24914 ft 260 kts 101°
2026-04-26 15:15 50.38988 -118.78055 24909 ft 260 kts 101°
2026-04-26 15:15 50.38423 -118.75374 24906 ft 259 kts 101°
2026-04-26 15:15 50.37857 -118.72694 24909 ft 259 kts 101°
2026-04-26 15:16 50.37293 -118.70022 24909 ft 258 kts 101°
2026-04-26 15:16 50.36728 -118.67349 24922 ft 259 kts 101°
2026-04-26 15:16 50.36160 -118.64669 24921 ft 259 kts 101°
2026-04-26 15:16 50.35787 -118.62903 24915 ft 258 kts 101°
2026-04-26 15:17 50.35224 -118.60238 24913 ft 257 kts 101°
2026-04-26 15:17 50.34845 -118.58444 24914 ft 257 kts 101°
2026-04-26 15:17 50.34101 -118.54934 24913 ft 255 kts 101°
2026-04-26 15:17 50.33540 -118.52295 24919 ft 255 kts 101°
2026-04-26 15:18 50.32979 -118.49655 24915 ft 256 kts 101°
2026-04-26 15:18 50.32416 -118.47013 24913 ft 256 kts 101°
2026-04-26 15:18 50.31851 -118.44371 24910 ft 256 kts 101°
2026-04-26 15:18 50.31288 -118.41741 24908 ft 254 kts 101°
2026-04-26 15:19 50.30726 -118.39122 24905 ft 253 kts 101°
2026-04-26 15:19 50.30148 -118.36531 24909 ft 253 kts 104°
2026-04-26 15:19 50.29400 -118.34015 24914 ft 258 kts 112°
2026-04-26 15:19 50.28492 -118.31586 24914 ft 259 kts 113°
2026-04-26 15:20 50.27602 -118.29128 24914 ft 260 kts 112°
2026-04-26 15:20 50.26724 -118.26672 24907 ft 259 kts 112°
2026-04-26 15:20 50.25845 -118.24216 24912 ft 259 kts 112°
2026-04-26 15:20 50.24961 -118.21760 24912 ft 259 kts 112°
2026-04-26 15:21 50.24075 -118.19313 24915 ft 259 kts 112°
2026-04-26 15:21 50.23185 -118.16860 24923 ft 260 kts 114°
2026-04-26 15:21 50.22289 -118.14402 24925 ft 261 kts 114°
2026-04-26 15:21 50.21401 -118.11967 24919 ft 262 kts 114°
2026-04-26 15:22 50.20487 -118.09469 24906 ft 261 kts 114°
2026-04-26 15:22 50.19598 -118.07041 24906 ft 261 kts 114°
2026-04-26 15:22 50.18697 -118.04583 24920 ft 261 kts 114°
2026-04-26 15:22 50.17796 -118.02124 24918 ft 261 kts 114°
2026-04-26 15:23 50.16891 -117.99661 24917 ft 261 kts 114°
2026-04-26 15:23 50.15987 -117.97200 24916 ft 262 kts 114°
2026-04-26 15:23 50.15083 -117.94740 24915 ft 261 kts 114°
2026-04-26 15:23 50.14180 -117.92287 24914 ft 261 kts 114°
2026-04-26 15:24 50.13278 -117.89837 24914 ft 260 kts 114°
2026-04-26 15:24 50.12377 -117.87393 24910 ft 259 kts 114°
2026-04-26 15:24 50.11480 -117.84965 24914 ft 259 kts 114°
2026-04-26 15:24 50.10581 -117.82531 24922 ft 260 kts 114°
2026-04-26 15:25 50.09679 -117.80088 24917 ft 260 kts 114°
2026-04-26 15:25 50.09078 -117.78463 24921 ft 261 kts 114°
2026-04-26 15:25 50.07864 -117.75182 24921 ft 262 kts 114°
2026-04-26 15:25 50.06954 -117.72729 24915 ft 262 kts 114°
2026-04-26 15:26 50.06041 -117.70271 24921 ft 262 kts 114°
2026-04-26 15:26 50.05132 -117.67825 24911 ft 260 kts 114°
2026-04-26 15:26 50.04228 -117.65397 24910 ft 259 kts 114°
2026-04-26 15:26 50.03326 -117.62973 24913 ft 259 kts 114°
2026-04-26 15:27 50.02424 -117.60551 24912 ft 258 kts 114°
2026-04-26 15:27 50.01523 -117.58134 24925 ft 260 kts 114°
2026-04-26 15:27 50.00615 -117.55697 24930 ft 261 kts 114°
2026-04-26 15:27 49.99703 -117.53255 24921 ft 261 kts 114°
2026-04-26 15:28 49.98803 -117.50847 24922 ft 261 kts 114°
2026-04-26 15:28 49.97891 -117.48412 24923 ft 262 kts 114°
2026-04-26 15:28 49.96974 -117.45967 24917 ft 261 kts 114°
2026-04-26 15:28 49.96058 -117.43524 24921 ft 262 kts 114°
2026-04-26 15:29 49.95139 -117.41078 24917 ft 262 kts 114°
2026-04-26 15:29 49.94221 -117.38636 24916 ft 261 kts 114°
2026-04-26 15:29 49.92380 -117.33745 24930 ft 263 kts 116°
2026-04-26 15:30 49.90525 -117.28829 24915 ft 264 kts 115°
2026-04-26 15:30 49.89598 -117.26373 24912 ft 264 kts 115°
2026-04-26 15:30 49.88669 -117.23916 24911 ft 264 kts 116°
2026-04-26 15:31 49.87740 -117.21463 24923 ft 264 kts 116°
2026-04-26 15:31 49.85891 -117.16583 24920 ft 264 kts 116°
2026-04-26 15:31 49.84960 -117.14130 24921 ft 264 kts 116°
2026-04-26 15:32 49.83396 -117.10010 24926 ft 265 kts 116°
2026-04-26 15:32 49.82156 -117.06748 24922 ft 265 kts 116°
2026-04-26 15:32 49.81219 -117.04289 24917 ft 264 kts 116°
2026-04-26 15:33 49.80285 -117.01839 24931 ft 265 kts 116°
2026-04-26 15:33 49.79349 -116.99382 24935 ft 265 kts 116°
2026-04-26 15:33 49.78409 -116.96919 24931 ft 266 kts 117°
2026-04-26 15:33 49.77466 -116.94452 24919 ft 266 kts 117°
2026-04-26 15:34 49.76524 -116.91990 24924 ft 266 kts 117°
2026-04-26 15:34 49.75579 -116.89525 24920 ft 266 kts 117°
2026-04-26 15:34 49.74634 -116.87058 24923 ft 266 kts 117°
2026-04-26 15:34 49.73689 -116.84598 24925 ft 266 kts 117°
2026-04-26 15:35 49.72757 -116.82170 24923 ft 267 kts 117°
2026-04-26 15:35 49.71810 -116.79706 24926 ft 267 kts 118°
2026-04-26 15:35 49.70864 -116.77246 24923 ft 267 kts 117°
2026-04-26 15:35 49.69914 -116.74779 24924 ft 267 kts 117°
2026-04-26 15:36 49.68960 -116.72304 24929 ft 268 kts 117°
2026-04-26 15:36 49.68004 -116.69826 24941 ft 269 kts 117°
2026-04-26 15:36 49.67048 -116.67351 24941 ft 269 kts 117°
2026-04-26 15:36 49.66091 -116.64878 24939 ft 268 kts 118°
2026-04-26 15:37 49.65129 -116.62407 24940 ft 268 kts 118°
2026-04-26 15:37 49.64172 -116.59953 24945 ft 268 kts 118°
2026-04-26 15:37 49.63209 -116.57482 24947 ft 269 kts 119°
2026-04-26 15:37 49.62247 -116.55010 24941 ft 269 kts 119°
2026-04-26 15:38 49.61285 -116.52536 24963 ft 270 kts 120°
2026-04-26 15:38 49.60319 -116.50053 24947 ft 270 kts 120°
2026-04-26 15:38 49.59352 -116.47564 24948 ft 271 kts 120°
2026-04-26 15:38 49.58384 -116.45072 24944 ft 271 kts 120°
2026-04-26 15:39 49.57417 -116.42589 24944 ft 270 kts 120°
2026-04-26 15:39 49.56463 -116.40143 24939 ft 269 kts 120°
2026-04-26 15:39 49.55501 -116.37678 24943 ft 269 kts 120°
2026-04-26 15:39 49.54849 -116.36010 24961 ft 269 kts 120°
2026-04-26 15:40 49.53568 -116.32733 24964 ft 270 kts 120°
2026-04-26 15:40 49.52600 -116.30261 24964 ft 270 kts 120°
2026-04-26 15:40 49.51629 -116.27783 24956 ft 270 kts 120°
2026-04-26 15:40 49.50660 -116.25313 24954 ft 270 kts 120°
2026-04-26 15:41 49.49681 -116.22819 24713 ft 279 kts 120°
2026-04-26 15:41 49.48656 -116.20211 24439 ft 287 kts 121°
2026-04-26 15:41 49.47620 -116.17581 24295 ft 287 kts 121°
2026-04-26 15:41 49.46593 -116.14978 24263 ft 283 kts 121°
2026-04-26 15:42 49.45578 -116.12404 24253 ft 279 kts 121°
2026-04-26 15:42 49.44576 -116.09865 24249 ft 277 kts 121°
2026-04-26 15:42 49.43577 -116.07336 24250 ft 276 kts 120°
2026-04-26 15:42 49.42587 -116.04830 24242 ft 274 kts 121°
2026-04-26 15:43 49.41610 -116.02361 24247 ft 274 kts 121°
2026-04-26 15:43 49.40607 -115.99828 24249 ft 275 kts 121°
2026-04-26 15:43 49.38627 -115.94829 24248 ft 277 kts 121°
2026-04-26 15:44 49.37622 -115.92298 24248 ft 278 kts 121°
2026-04-26 15:44 49.35602 -115.87221 24246 ft 279 kts 121°
2026-04-26 15:44 49.34600 -115.84676 24248 ft 278 kts 117°
2026-04-26 15:45 49.34712 -115.79171 24259 ft 263 kts 62°
2026-04-26 15:45 49.35478 -115.76617 24274 ft 264 kts 61°
2026-04-26 15:46 49.37022 -115.71468 24258 ft 266 kts 64°
2026-04-26 15:46 49.37175 -115.68635 24256 ft 275 kts 101°
2026-04-26 15:46 49.36289 -115.66062 24245 ft 274 kts 128°
2026-04-26 15:46 49.35483 -115.64567 24241 ft 274 kts 131°
2026-04-26 15:47 49.33744 -115.61602 23958 ft 284 kts 134°
2026-04-26 15:47 49.31002 -115.57112 23489 ft 291 kts 134°
2026-04-26 15:47 49.29604 -115.54858 23203 ft 293 kts 135°
2026-04-26 15:48 49.28197 -115.52599 22922 ft 293 kts 135°
2026-04-26 15:48 49.26796 -115.50356 22644 ft 289 kts 135°
2026-04-26 15:48 49.25424 -115.48165 22373 ft 281 kts 135°
2026-04-26 15:48 49.24089 -115.46031 22092 ft 275 kts 135°
2026-04-26 15:49 49.22774 -115.43930 21820 ft 271 kts 135°
2026-04-26 15:49 49.21480 -115.41858 21486 ft 270 kts 135°
2026-04-26 15:49 49.20183 -115.39782 21091 ft 270 kts 135°
2026-04-26 15:49 49.18890 -115.37713 20693 ft 269 kts 135°
2026-04-26 15:50 49.17560 -115.35777 20308 ft 265 kts 144°
2026-04-26 15:50 49.16038 -115.34126 19913 ft 264 kts 148°
2026-04-26 15:50 49.14524 -115.32603 19533 ft 263 kts 149°
2026-04-26 15:50 49.13006 -115.31109 19163 ft 256 kts 149°
2026-04-26 15:51 49.11522 -115.29663 18798 ft 250 kts 150°
2026-04-26 15:51 49.10077 -115.28262 18433 ft 242 kts 150°
2026-04-26 15:51 49.08676 -115.26905 18040 ft 235 kts 150°
2026-04-26 15:51 49.07312 -115.25586 17606 ft 229 kts 150°
2026-04-26 15:52 49.05979 -115.24298 17190 ft 224 kts 150°
2026-04-26 15:52 49.04675 -115.23038 16783 ft 220 kts 150°
2026-04-26 15:52 49.03388 -115.21797 16374 ft 217 kts 150°
2026-04-26 15:52 49.02543 -115.21004 16106 ft 214 kts 151°
2026-04-26 15:53 49.00785 -115.19685 15575 ft 208 kts 160°
2026-04-26 15:53 48.99442 -115.18900 15173 ft 205 kts 162°
2026-04-26 15:53 48.98107 -115.18176 14788 ft 202 kts 163°
2026-04-26 15:53 48.96770 -115.18087 14404 ft 190 kts 197°
2026-04-26 15:54 48.95501 -115.18628 14032 ft 189 kts 201°
2026-04-26 15:54 48.94261 -115.19251 13644 ft 188 kts 202°
2026-04-26 15:54 48.93032 -115.19904 13228 ft 186 kts 203°
2026-04-26 15:54 48.91814 -115.20575 12814 ft 185 kts 203°
2026-04-26 15:55 48.90609 -115.21258 12407 ft 185 kts 204°
2026-04-26 15:55 48.89405 -115.21941 11998 ft 184 kts 204°
2026-04-26 15:55 48.88213 -115.22615 11597 ft 182 kts 203°
2026-04-26 15:55 48.87028 -115.23301 11208 ft 181 kts 203°
2026-04-26 15:56 48.85862 -115.23999 10819 ft 179 kts 203°
2026-04-26 15:56 48.84698 -115.24672 10437 ft 178 kts 202°
2026-04-26 15:56 48.83489 -115.24688 10058 ft 181 kts 155°
2026-04-26 15:56 48.82678 -115.23312 9693 ft 181 kts 119°
2026-04-26 15:57 48.82105 -115.21621 9278 ft 179 kts 111°
2026-04-26 15:57 48.82087 -115.19780 8876 ft 176 kts 79°
2026-04-26 15:57 48.82343 -115.17959 8472 ft 176 kts 76°
2026-04-26 15:57 48.82542 -115.16742 8202 ft 176 kts 75°
2026-04-26 15:58 48.83121 -115.14488 7687 ft 173 kts 50°
2026-04-26 15:58 48.84061 -115.13381 7295 ft 171 kts 31°
2026-04-26 15:58 48.85129 -115.12591 6912 ft 170 kts 27°
2026-04-26 15:58 48.86266 -115.12173 6551 ft 170 kts
2026-04-26 15:59 48.87446 -115.12063 6176 ft 169 kts
2026-04-26 15:59 48.88577 -115.12000 5794 ft 156 kts
2026-04-26 15:59 48.89618 -115.11883 5393 ft 145 kts 12°
2026-04-26 15:59 48.90577 -115.11517 4964 ft 141 kts 20°
2026-04-26 16:00 48.91501 -115.11049 4512 ft 139 kts 23°
2026-04-26 16:00 48.92385 -115.10561 4097 ft 132 kts 23°
2026-04-26 16:00 48.93212 -115.10066 3747 ft 120 kts 25°
2026-04-26 16:00 48.93942 -115.09634 3463 ft 106 kts 23°
2026-04-26 16:01 48.94592 -115.09246 3250 ft 96 kts 22°
2026-04-26 16:01 48.95205 -115.08872 3093 ft 92 kts 22°
2026-04-26 16:01 48.95797 -115.08532 2903 ft 90 kts 22°
2026-04-26 16:01 48.96351 -115.08216 2768 ft 80 kts 23°
2026-04-26 16:02 48.96772 -115.07980 2757 ft 39 kts 19°
2026-04-26 16:02 48.97008 -115.07849 2752 ft 33 kts 20°
2026-04-26 16:02 48.97198 -115.07745 2754 ft 22 kts 20°
2026-04-26 16:02 48.97242 -115.07721 2753 ft 20 kts 20°
2026-04-26 16:03 48.97360 -115.07746 2747 ft 3 kts 289°
2026-04-26 16:03 48.97338 -115.07770 2748 ft 6 kts 201°
2026-04-26 16:03 48.97285 -115.07800 2750 ft 10 kts 199°
2026-04-26 16:03 48.97217 -115.07838 2750 ft 11 kts 201°
2026-04-26 16:04 48.97142 -115.07881 2748 ft 12 kts 200°
2026-04-26 16:04 48.97093 -115.07909 2748 ft 11 kts 200°
2026-04-26 16:04 48.97024 -115.07944 2752 ft 10 kts 199°
2026-04-26 16:04 48.96953 -115.07986 2754 ft 12 kts 200°
2026-04-26 16:05 48.96878 -115.08028 2754 ft 11 kts 200°
2026-04-26 16:05 48.96809 -115.08068 2758 ft 10 kts 198°
2026-04-26 16:05 48.96745 -115.08101 2756 ft 8 kts 200°
2026-04-26 16:05 48.96720 -115.08151 2761 ft 8 kts 288°
2026-04-26 16:06 48.96745 -115.08176 2759 ft 4 kts 11°
2026-04-26 16:06 48.96750 -115.08173 2757 ft 0 kts 22°
2026-04-26 16:24 48.96754 -115.08173 2757 ft 4 kts 333°
2026-04-26 16:24 48.96727 -115.08168 2759 ft 9 kts 131°
2026-04-26 16:24 48.96671 -115.08147 2756 ft 10 kts 198°
2026-04-26 16:25 48.96598 -115.08188 2763 ft 13 kts 199°
2026-04-26 16:25 48.96505 -115.08241 2760 ft 15 kts 200°
2026-04-26 16:25 48.96404 -115.08298 2759 ft 13 kts 198°
2026-04-26 16:25 48.96331 -115.08320 2756 ft 10 kts 138°
2026-04-26 16:26 48.96325 -115.08234 2751 ft 10 kts 36°
2026-04-26 16:26 48.96355 -115.08215 2753 ft 0 kts 20°
2026-04-26 16:26 48.96434 -115.08171 2758 ft 32 kts 21°
2026-04-26 16:26 48.96781 -115.07971 2761 ft 73 kts 22°
2026-04-26 16:27 48.97361 -115.07668 2788 ft 98 kts 21°
2026-04-26 16:27 48.98020 -115.07337 3018 ft 100 kts 18°
2026-04-26 16:27 48.98701 -115.07119 3271 ft 103 kts
2026-04-26 16:27 48.99234 -115.07829 3428 ft 123 kts 279°
2026-04-26 16:28 48.98965 -115.09169 3495 ft 145 kts 241°
2026-04-26 16:28 48.98318 -115.10346 3694 ft 150 kts 200°
2026-04-26 16:28 48.97285 -115.10765 3844 ft 159 kts 176°
2026-04-26 16:28 48.96198 -115.10265 3940 ft 172 kts 147°
2026-04-26 16:29 48.95180 -115.09196 3978 ft 189 kts 139°
2026-04-26 16:29 48.94153 -115.07837 3989 ft 201 kts 136°
2026-04-26 16:29 48.93112 -115.06335 3997 ft 210 kts 133°
2026-04-26 16:29 48.92228 -115.04535 3993 ft 215 kts 122°
2026-04-26 16:30 48.91354 -115.02694 3991 ft 215 kts 128°
2026-04-26 16:30 48.90346 -115.01016 3994 ft 215 kts 133°
2026-04-26 16:30 48.89238 -114.99481 4005 ft 216 kts 138°
2026-04-26 16:30 48.88077 -114.98038 4001 ft 216 kts 140°
2026-04-26 16:31 48.86887 -114.96646 3992 ft 216 kts 140°
2026-04-26 16:31 48.85689 -114.95282 3998 ft 215 kts 141°
2026-04-26 16:31 48.84483 -114.93922 3998 ft 216 kts 142°
2026-04-26 16:31 48.83284 -114.92575 4004 ft 207 kts 141°
2026-04-26 16:32 48.82233 -114.91265 3893 ft 187 kts 135°
2026-04-26 16:32 48.81594 -114.90423 3773 ft 180 kts 140°
2026-04-26 16:32 48.80224 -114.89154 3599 ft 169 kts 146°
2026-04-26 16:32 48.79225 -114.88252 3686 ft 166 kts 146°
2026-04-26 16:33 48.78158 -114.87695 3826 ft 170 kts 182°
2026-04-26 16:33 48.77184 -114.88677 3910 ft 177 kts 239°
2026-04-26 16:33 48.77049 -114.90470 3950 ft 176 kts 291°
2026-04-26 16:33 48.77775 -114.91915 3972 ft 173 kts 322°
2026-04-26 16:34 48.78773 -114.92902 3988 ft 171 kts 333°
2026-04-26 16:34 48.79821 -114.93729 4000 ft 169 kts 336°
2026-04-26 16:34 48.80867 -114.94489 3993 ft 160 kts 341°
2026-04-26 16:34 48.81837 -114.94333 3984 ft 132 kts 36°
2026-04-26 16:35 48.82489 -114.93546 3933 ft 116 kts 46°
2026-04-26 16:35 48.82738 -114.92428 3832 ft 111 kts 88°
2026-04-26 16:35 48.82567 -114.91357 3755 ft 101 kts 120°
2026-04-26 16:35 48.82026 -114.90725 3714 ft 98 kts 148°
2026-04-26 16:36 48.81420 -114.90238 3651 ft 98 kts 140°
2026-04-26 16:36 48.80842 -114.89700 3579 ft 96 kts 141°
2026-04-26 16:36 48.80274 -114.89179 3462 ft 94 kts 140°
2026-04-26 16:36 48.79739 -114.88701 3350 ft 81 kts 142°
2026-04-26 16:37 48.79347 -114.88336 3339 ft 40 kts 152°
2026-04-26 16:37 48.79211 -114.88231 3341 ft 15 kts 150°
2026-04-26 16:37 48.79165 -114.88174 3343 ft 5 kts 14°
2026-04-26 16:37 48.79200 -114.88206 3341 ft 12 kts 326°
2026-04-26 16:38 48.79301 -114.88300 3340 ft 13 kts 330°
2026-04-26 16:38 48.79384 -114.88374 3341 ft 15 kts 328°
2026-04-26 16:38 48.79469 -114.88453 3343 ft 13 kts 329°
2026-04-26 16:38 48.79544 -114.88520 3344 ft 13 kts 329°
2026-04-26 16:39 48.79628 -114.88595 3344 ft 14 kts 329°
2026-04-26 16:39 48.79704 -114.88666 3344 ft 12 kts 329°
2026-04-26 16:39 48.79783 -114.88736 3342 ft 14 kts 328°
2026-04-26 16:39 48.79864 -114.88811 3344 ft 12 kts 327°
2026-04-26 16:40 48.79900 -114.88877 3343 ft 7 kts 270°
2026-04-26 16:40 48.79871 -114.88918 3343 ft 4 kts 187°
2026-04-26 16:40 48.79837 -114.88911 3343 ft 5 kts 114°
2026-04-26 16:40 48.79849 -114.88889 3343 ft 2 kts
2026-04-26 16:41 48.79854 -114.88890 3345 ft 0 kts 347°
2026-04-26 16:57 48.79869 -114.88898 3344 ft 6 kts 340°
2026-04-26 16:58 48.79905 -114.88877 3346 ft 7 kts 63°
2026-04-26 16:58 48.79898 -114.88837 3345 ft 6 kts 146°
2026-04-26 16:58 48.79627 -114.88595 3347 ft 62 kts 149°
2026-04-26 16:59 48.79146 -114.88165 3353 ft 94 kts 150°
2026-04-26 16:59 48.77949 -114.87119 3799 ft 106 kts 137°
2026-04-26 17:00 48.76594 -114.85596 4053 ft 145 kts 152°
2026-04-26 17:00 48.74686 -114.87084 4005 ft 197 kts 252°
2026-04-26 17:00 48.74813 -114.89187 3989 ft 212 kts 299°
2026-04-26 17:01 48.75784 -114.90921 4006 ft 223 kts 318°
2026-04-26 17:01 48.76972 -114.92493 4002 ft 230 kts 323°
2026-04-26 17:01 48.78240 -114.94006 4005 ft 234 kts 325°
2026-04-26 17:01 48.79545 -114.95497 3995 ft 235 kts 325°
2026-04-26 17:02 48.80835 -114.96941 4000 ft 229 kts 326°
2026-04-26 17:02 48.82094 -114.98351 4001 ft 220 kts 326°
2026-04-26 17:02 48.83302 -114.99704 4016 ft 211 kts 325°
2026-04-26 17:02 48.84462 -115.00990 4017 ft 201 kts 327°
2026-04-26 17:03 48.85570 -115.02228 4021 ft 194 kts 326°
2026-04-26 17:03 48.86638 -115.03422 4020 ft 188 kts 328°
2026-04-26 17:03 48.87683 -115.04556 4020 ft 183 kts 328°
2026-04-26 17:03 48.88712 -115.05655 4021 ft 179 kts 328°
2026-04-26 17:04 48.89717 -115.06739 4014 ft 176 kts 329°
2026-04-26 17:04 48.90702 -115.07809 4017 ft 172 kts 329°
2026-04-26 17:04 48.91634 -115.08840 4017 ft 160 kts 329°
2026-04-26 17:04 48.92477 -115.09848 3878 ft 148 kts 327°
2026-04-26 17:05 48.93397 -115.10111 3633 ft 135 kts 19°
2026-04-26 17:05 48.94229 -115.09529 3439 ft 125 kts 27°
2026-04-26 17:05 48.94983 -115.08987 3243 ft 120 kts 25°
2026-04-26 17:05 48.95746 -115.08557 2985 ft 112 kts 21°
2026-04-26 17:06 48.96442 -115.08169 2769 ft 98 kts 21°
2026-04-26 17:06 48.96994 -115.07853 2759 ft 62 kts 20°
2026-04-26 17:06 48.97237 -115.07724 2758 ft 17 kts 18°
2026-04-26 17:06 48.97344 -115.07728 2756 ft 12 kts 334°
2026-04-26 17:07 48.97341 -115.07769 2762 ft 6 kts 198°
2026-04-26 17:07 48.97294 -115.07800 2753 ft 8 kts 192°
2026-04-26 17:07 48.97228 -115.07831 2757 ft 12 kts 201°
2026-04-26 17:07 48.97141 -115.07882 2755 ft 13 kts 198°
2026-04-26 17:08 48.97060 -115.07925 2758 ft 12 kts 200°
2026-04-26 17:08 48.96975 -115.07975 2762 ft 14 kts 201°
2026-04-26 17:08 48.96885 -115.08025 2761 ft 13 kts 198°
2026-04-26 17:08 48.96808 -115.08066 2765 ft 11 kts 199°
2026-04-26 17:09 48.96741 -115.08106 2764 ft 8 kts 201°
2026-04-26 17:09 48.96718 -115.08142 2764 ft 8 kts 275°
2026-04-26 17:09 48.96716 -115.08220 2765 ft 6 kts 187°
2026-04-26 17:09 48.96690 -115.08180 2762 ft 4 kts 101°
2026-04-26 17:10 48.96702 -115.08164 2761 ft 1 kts 19°
2026-04-26 17:10 48.96703 -115.08164 2761 ft 0 kts 20°